Pagina principale
METAR-TAF:

METAR-TAF

Aeroporti :

Le Luc, Francia

latitudine: 43-23N, longitudine: 006-23E, altezza: 80 m

Osservazione

Il bollettino è stato emesso 24 minuti fa, alle 13:00 UTC
Vento 21 kt da ovest con raffiche fino a 33 kt
Temperature 22°C
Umidità 35%
Pressione 1003 hPa
Visibilità 10 km o più

METAR: LFMC 271300Z AUTO 28021G33KT 9999 ////// 22/06 Q1003

Ora: 15:24 (13:24 UTC)


TAF: mancante

Osservazioni e previsioni meteorologiche di più di 4000 aeroporti (messaggi METAR e TAF).

Le stazioni disponibili sono rappresentate dai dischi gialli e rossi sulla carta.

Puntare il mouse per vedere il nome della stazione.

Clicca sopra per visualizzare le osservazioni e previsioni meteorologiche.

Per cambiare la mappa : fare clic sui pulsanti verdi con una croce nera per ingrandire, il pulsante verde con un trattino per diminuire, o sulla freccia verde per le mappe adiacenti.


METAR-TAF: